Lakeville, MN

7:02 PM CST on December 02, 2016 (GMT -0600)
Airlake

Weather History for KLVN - September, 2011

Change the Weather History Date:

Friday, September 30, 2011

  Actual Average Record
Temperature  
Mean Temperature 53 °F -  
Max Temperature 60 °F 68 °F 84 °F (1971)
Min Temperature 46 °F 44 °F 26 °F (1972)
Degree Days  
Heating Degree Days 12    
Growing Degree Days 3 (Base 50)    
Moisture  
Dew Point 40 °F    
Average Humidity 63    
Maximum Humidity 93    
Minimum Humidity 31    
Precipitation  
Precipitation 0.00 in - - ()
Sea Level Pressure  
Sea Level Pressure 30.17 in    
Wind  
Wind Speed 12 mph (NNW)    
Max Wind Speed 16 mph    
Max Gust Speed 22 mph    
Visibility 10 miles    
Events      
Averages and records for this station are not official NWS values.
T = Trace of Precipitation, MM = Missing Value Source: NWS Daily Summary

Daily Weather History Graph

Daily Weather History Graph

Search for Another Location

Airport or City:

Trip Planner

Search our weather history database for the weather conditions in past years. The results will help you decide how hot, cold, wet, or windy it might be!

Date:

Astronomy

Sep. 30, 2011 Rise Set
Actual Time 7:09 AM CDT 6:55 PM CDT
Civil Twilight 6:40 AM CDT 7:24 PM CDT
Nautical Twilight 6:06 AM CDT 7:58 PM CDT
Astronomical Twilight 5:31 AM CDT 8:32 PM CDT
Moon 11:20 AM CDT (9/30) 8:44 PM CDT (9/30)
Length of Visible Light 12h 44m
Length of Day
11h 46m
Waxing Crescent, 15% of the Moon is Illuminated
Sep 30
Waxing Crescent
Oct 3
First Quarter
Oct 11
Full
Oct 19
Last Quarter
Oct 26
New

Hourly Weather History & Observations

Time (CDT) Temp. Windchill Dew Point Humidity Pressure Visibility Wind Dir Wind Speed Gust Speed Precip Events Conditions
12:14 AM 53.6 °F - 44.6 °F 72% 30.09 in 10.0 mi NW 16.1 mph 20.7 mph N/A   Clear
12:33 AM 53.6 °F - 44.6 °F 72% 30.10 in 10.0 mi NW 15.0 mph - N/A   Clear
12:54 AM 53.6 °F - 44.6 °F 72% 30.10 in 10.0 mi NW 12.7 mph 19.6 mph N/A   Clear
1:13 AM 53.6 °F - 44.6 °F 72% 30.11 in 10.0 mi NW 12.7 mph 19.6 mph N/A   Clear
1:34 AM 53.6 °F - 44.6 °F 72% 30.11 in 10.0 mi NNW 10.4 mph 18.4 mph N/A   Clear
1:54 AM 51.8 °F - 44.6 °F 76% 30.11 in 10.0 mi NW 10.4 mph - N/A   Clear
2:13 AM 51.8 °F - 44.6 °F 76% 30.12 in 10.0 mi NW 12.7 mph - N/A   Clear
2:34 AM 51.8 °F - 44.6 °F 76% 30.12 in 10.0 mi NW 12.7 mph - N/A   Clear
2:54 AM 50.0 °F - 44.6 °F 82% 30.13 in 10.0 mi NW 11.5 mph 17.3 mph N/A   Clear
3:13 AM 50.0 °F - 44.6 °F 82% 30.12 in 10.0 mi NW 10.4 mph - N/A   Clear
3:34 AM 48.2 °F - 44.6 °F 87% 30.13 in 10.0 mi NW 9.2 mph - N/A   Clear
3:54 AM 48.2 °F - 44.6 °F 87% 30.13 in 10.0 mi NW 12.7 mph - N/A   Clear
4:13 AM 48.2 °F - 44.6 °F 87% 30.13 in 10.0 mi NW 12.7 mph - N/A   Clear
4:54 AM 48.2 °F - 44.6 °F 87% 30.14 in 10.0 mi NW 10.4 mph - N/A   Clear
5:13 AM 46.4 °F 41.5 °F 44.6 °F 93% 30.14 in 10.0 mi NW 10.4 mph - N/A   Clear
5:34 AM 46.4 °F 41.1 °F 44.6 °F 93% 30.15 in 10.0 mi NW 11.5 mph 16.1 mph N/A   Clear
5:54 AM 46.4 °F 41.1 °F 44.6 °F 93% 30.15 in 10.0 mi NW 11.5 mph - N/A   Clear
6:13 AM 46.4 °F 41.5 °F 44.6 °F 93% 30.15 in 10.0 mi NW 10.4 mph - N/A   Clear
6:34 AM 46.4 °F 41.5 °F 44.6 °F 93% 30.16 in 10.0 mi NW 10.4 mph - N/A   Clear
6:54 AM 46.4 °F 40.7 °F 44.6 °F 93% 30.16 in 10.0 mi NW 12.7 mph 16.1 mph N/A   Clear
7:13 AM 46.4 °F 41.9 °F 42.8 °F 87% 30.17 in 10.0 mi NW 9.2 mph 16.1 mph N/A   Clear
7:34 AM 46.4 °F 41.9 °F 42.8 °F 87% 30.17 in 10.0 mi NW 9.2 mph - N/A   Clear
7:54 AM 46.4 °F 41.9 °F 42.8 °F 87% 30.18 in 10.0 mi NW 9.2 mph - N/A   Clear
8:13 AM 46.4 °F 41.1 °F 42.8 °F 87% 30.18 in 10.0 mi NW 11.5 mph - N/A   Clear
8:34 AM 48.2 °F - 42.8 °F 82% 30.19 in 10.0 mi NW 11.5 mph - N/A   Clear
8:54 AM 48.2 °F - 44.6 °F 87% 30.19 in 10.0 mi NNW 12.7 mph - N/A   Clear
9:13 AM 50.0 °F - 44.6 °F 82% 30.20 in 10.0 mi NW 9.2 mph - N/A   Clear
9:33 AM 50.0 °F - 42.8 °F 76% 30.20 in 10.0 mi NNW 8.1 mph 16.1 mph N/A   Scattered Clouds
9:54 AM 51.8 °F - 42.8 °F 71% 30.21 in 10.0 mi North 11.5 mph - N/A   Clear
10:14 AM 53.6 °F - 42.8 °F 67% 30.21 in 10.0 mi NNW 10.4 mph 16.1 mph N/A   Clear
10:33 AM 53.6 °F - 41.0 °F 62% 30.21 in 10.0 mi North 10.4 mph 16.1 mph N/A   Clear
10:54 AM 55.4 °F - 39.2 °F 54% 30.22 in 10.0 mi NNW 10.4 mph 18.4 mph N/A   Clear
11:13 AM 55.4 °F - 37.4 °F 51% 30.22 in 10.0 mi North 13.8 mph 17.3 mph N/A   Clear
11:33 AM 55.4 °F - 39.2 °F 54% 30.22 in 10.0 mi NNW 10.4 mph 16.1 mph N/A   Clear
11:54 AM 55.4 °F - 39.2 °F 54% 30.21 in 10.0 mi NNW 9.2 mph - N/A   Clear
12:14 PM 57.2 °F - 39.2 °F 51% 30.21 in 10.0 mi NW 10.4 mph 17.3 mph N/A   Clear
12:33 PM 57.2 °F - 37.4 °F 48% 30.21 in 10.0 mi NW 13.8 mph 18.4 mph N/A   Clear
12:54 PM 57.2 °F - 37.4 °F 48% 30.21 in 10.0 mi NW 11.5 mph - N/A   Clear
1:13 PM 59.0 °F - 35.6 °F 42% 30.21 in 10.0 mi North 10.4 mph 21.9 mph N/A   Clear
1:33 PM 59.0 °F - 37.4 °F 45% 30.21 in 10.0 mi NNW 12.7 mph 17.3 mph N/A   Clear
1:54 PM 60.8 °F - 33.8 °F 36% 30.20 in 10.0 mi NNW 9.2 mph - N/A   Clear
2:14 PM 60.8 °F - 33.8 °F 36% 30.20 in 10.0 mi NNW 13.8 mph 20.7 mph N/A   Clear
2:33 PM 60.8 °F - 32.0 °F 34% 30.19 in 10.0 mi NNW 11.5 mph 19.6 mph N/A   Clear
2:53 PM 60.8 °F - 33.8 °F 36% 30.19 in 10.0 mi North 9.2 mph - N/A   Clear
3:13 PM 60.8 °F - 33.8 °F 36% 30.19 in 10.0 mi NNW 11.5 mph - N/A   Clear
3:34 PM 60.8 °F - 32.0 °F 34% 30.19 in 10.0 mi North 11.5 mph 16.1 mph N/A   Clear
3:54 PM 60.8 °F - 33.8 °F 36% 30.19 in 10.0 mi North 10.4 mph 16.1 mph N/A   Clear
4:13 PM 60.8 °F - 30.2 °F 31% 30.18 in 10.0 mi NNW 11.5 mph - N/A   Clear
4:34 PM 60.8 °F - 32.0 °F 34% 30.18 in 10.0 mi North 6.9 mph - N/A   Clear
4:54 PM 60.8 °F - 30.2 °F 31% 30.18 in 10.0 mi NNW 10.4 mph - N/A   Clear
5:13 PM 59.0 °F - 32.0 °F 36% 30.18 in 10.0 mi North 8.1 mph - N/A   Clear
5:34 PM 59.0 °F - 32.0 °F 36% 30.19 in 10.0 mi North 8.1 mph - N/A   Clear
5:54 PM 57.2 °F - 33.8 °F 41% 30.19 in 10.0 mi NNE 9.2 mph - N/A   Clear
6:13 PM 57.2 °F - 32.0 °F 38% 30.20 in 10.0 mi NNE 8.1 mph - N/A   Clear
6:34 PM 55.4 °F - 32.0 °F 41% 30.20 in 10.0 mi NNE 8.1 mph - N/A   Clear
6:53 PM 53.6 °F - 33.8 °F 47% 30.21 in 10.0 mi NNE 6.9 mph - N/A   Clear
7:13 PM 51.8 °F - 33.8 °F 50% 30.21 in 10.0 mi NE 4.6 mph - N/A   Clear
7:34 PM 50.0 °F - 33.8 °F 54% 30.22 in 10.0 mi NE 4.6 mph - N/A   Clear
7:54 PM 48.2 °F - 33.8 °F 58% 30.22 in 10.0 mi NNE 5.8 mph - N/A   Clear
8:13 PM 46.4 °F - 33.8 °F 62% 30.22 in 10.0 mi Calm Calm - N/A   Clear
8:34 PM 44.6 °F - 33.8 °F 66% 30.23 in 10.0 mi Calm Calm - N/A   Clear
8:53 PM 44.6 °F 43.1 °F 33.8 °F 66% 30.24 in 10.0 mi NE 3.5 mph - N/A   Clear
9:13 PM 44.6 °F 42.2 °F 35.6 °F 71% 30.25 in 10.0 mi ENE 4.6 mph - N/A   Clear
9:34 PM 44.6 °F 41.4 °F 35.6 °F 71% 30.26 in 10.0 mi ENE 5.8 mph - N/A   Clear
9:54 PM 44.6 °F 40.7 °F 35.6 °F 71% 30.27 in 10.0 mi ENE 6.9 mph - N/A   Clear
10:13 PM 44.6 °F 43.1 °F 35.6 °F 71% 30.27 in 10.0 mi ENE 3.5 mph - N/A   Clear
10:34 PM 41.0 °F 39.0 °F 35.6 °F 81% 30.28 in 10.0 mi East 3.5 mph - N/A   Clear
11:13 PM 37.4 °F - 33.8 °F 87% 30.29 in 10.0 mi Calm Calm - N/A   Clear
11:34 PM 35.6 °F - 33.8 °F 93% 30.29 in 10.0 mi Calm Calm - N/A   Clear
11:54 PM 35.6 °F - 33.8 °F 93% 30.29 in 10.0 mi Calm Calm - N/A   Clear